Lexington Weather

Lexington, Massachusetts, USA

40°F
3/30/2020 8:58am 
  • Lexington Conditions: Mist, Overcast
  • Temperature: 39.6°F / 4.2°CWarmer 0.2°F than last hour.
  • Dew Point: 38.8°FIncreased 0.1°Fsince last hour.
  • Relative Humidity: 97
  • Wind: Wind from ENE ENE 3 mph, 10-min avg: 3 mph, gust: 9 mph
  • Barometer: 29.97 in Steady
  • Visibility: 2 miles
  • Rain Today: 0.02 in
  •   

Regional Weather Roundup
for Boston / Norton, MA

        
000
ASUS41 KBOX 272105
RWRBOX

REGIONAL WEATHER ROUNDUP
NATIONAL WEATHER SERVICE BOSTON/NORTON MA
500 PM EDT FRI MAR 27 2020

NOTE:  "FAIR" INDICATES FEW OR NO CLOUDS BELOW 12,000 FEET WITH NO 
SIGNIFICANT WEATHER AND/OR OBSTRUCTIONS TO VISIBILITY.

MAZALL-272200-
EASTERN MASSACHUSETTS
  
CITY           SKY/WX    TMP DP  RH WIND       PRES   REMARKS
BOSTON         FAIR      61  13  15 NW17G26   29.83R                  
BEVERLY        FAIR      60  18  19 NW14G23   29.83R                  
LAWRENCE       FAIR      58  15  18 NW16G25   29.85R                  
BEDFORD        FAIR      62  16  16 N14G20    29.83R                  
BLUE HILL        N/A     59  16  18 NW12G23   29.81R                  
NORWOOD        FAIR      63  17  17 NW14G21   29.83R                  
MARSHFIELD     FAIR      61  25  25 N9G17     29.82R                  
PLYMOUTH       FAIR      62  21  20 NW15G22   29.82R                  
TAUNTON        FAIR      63  19  18 N8        29.81R                  
NEW BEDFORD    FAIR      63  20  19 NW12      29.82R                  
$$

MAZALL-272200-
CAPE COD AND THE ISLANDS
  
CITY           SKY/WX    TMP DP  RH WIND       PRES   REMARKS
FALMOUTH       SUNNY     61  25  25 NE17      29.80S                  
HYANNIS        FAIR      59  26  28 N12G20    29.81R                  
CHATHAM        FAIR      58  25  28 NW7G18    29.83R                  
PROVINCETOWN   FAIR      52  35  52 N8        29.84R                  
NANTUCKET      FAIR      58  27  30 N13       29.84R                  
MARTHAS VNYRD  FAIR      57  33  40 S8        29.83R                  
$$
 
MAZALL-272200-
CENTRAL AND WESTERN MASSACHUSETTS
  
CITY           SKY/WX    TMP DP  RH WIND       PRES   REMARKS
WORCESTER      FAIR      58  16  19 W18G26    29.85R                  
FITCHBURG      FAIR      60  13  15 NW16G25   29.85R                  
ORANGE         FAIR      60  18  19 NW13G22   29.86R                  
SPRINGFIELD    SUNNY     62  19  19 NW13      29.84S                  
WESTFIELD      FAIR      61  19  19 N12       29.84F                  
NORTH ADAMS    FAIR      58  25  28 NW8       29.87S                  
PITTSFIELD     FAIR      55  27  34 NW9       29.86S                  
$$
 
RIZALL-272200-
RHODE ISLAND
  
CITY           SKY/WX    TMP DP  RH WIND       PRES   REMARKS
PROVIDENCE     FAIR      64  19  17 NW10G18   29.83R                  
NEWPORT        FAIR      64  22  20 N10       29.82R                  
BLOCK ISLAND   FAIR      62  28  27 CALM      29.83S                  
SMITHFIELD     FAIR      60  18  19 N13G18    29.84R                  
WESTERLY       FAIR      69  22  16 VRB7      29.82S                  
$$
 
CTZALL-272200-
CONNECTICUT
  
CITY           SKY/WX    TMP DP  RH WIND       PRES   REMARKS
BRADLEY INTL   FAIR      62  19  19 N8        29.84F                  
HARTFORD       FAIR      64  22  20 N9        29.85R                  
BRIDGEPORT     FAIR      65  22  19 N7        29.85R                  
DANBURY        FAIR      61  20  20 N10G26    29.87S                  
GROTON         FAIR      63  21  20 NW13      29.83R                  
NEW HAVEN      FAIR      65  21  18 N13       29.85R                  
CHESTER        FAIR      64  21  19 N12       29.84R                  
MERIDEN        FAIR      64  24  21 N12G18    29.85R                  
WILLIMANTIC    FAIR      63  20  19 NW14G21   29.84R                  
OXFORD         FAIR      59  18  20 N14G22    29.87S                  
$$

MEZ002-015-021-024-NHZ003-005-008-011-012-014-VTZ005-008-272200-
NORTHERN NEW ENGLAND
  
CITY           SKY/WX    TMP DP  RH WIND       PRES   REMARKS
PORTLAND ME    FAIR      54  25  32 N21G31    29.82R                  
BANGOR ME      CLOUDY    45  27  49 NW13G24   29.79R                  
CONCORD NH     FAIR      56  12  17 NW18G28   29.85R                  
MANCHESTER NH  FAIR      59  10  14 NW17G29   29.83R                  
NASHUA NH      FAIR      60  15  17 N8G17     29.85R                  
PORTSMOUTH NH  SUNNY     58   9  14 NW16G29   29.81R                  
JAFFREY NH     FAIR      56  29  35 NW8G22    29.85R                  
KEENE NH       FAIR      57  17  21 N13G21    29.86R                  
BURLINGTON VT  FAIR      52  21  29 N15       29.93R                  
MT. WASHINGTON FOG       19  19 100 W51G56      N/A  VSB 1/8 WCI  -4  
$$

NYZ052-076-272200-
EASTERN NEW YORK
  
CITY           SKY/WX    TMP DP  RH WIND       PRES   REMARKS
ALBANY         FAIR      59  28  30 W16       29.90F                  
NEW YORK CITY  FAIR      67  24  19 E5        29.85S                  
$$
 
ANZALL-272200-
MARINE OBSERVATIONS
  
STATION/POSITION TIME  TEMP    WIND        PRES    VSBY  WAVE
                       AIR SEA DIR/SP/G                  HT/PER
                 (UTC) (F)     (DEG/KT/KT) (MB)    (MI)  (FT/S)
BOSTON BUOY      2050   50 43  350/ 12/ 16 1009.3R         5/11
BUZZARDS BAY     2000          330/ 11/ 12 1010.5R
NANTUCKET SOUND  2040                        N/A           2/ 3
MASS BAY-STELLWA 2004   46 42   60/  8/  8 1007.3R  1 7/8  6/11
ISLE OF SHOALS   2000   54     320/ 23/ 25 1008.6R
S OF BLOCK IS    2030      45                N/A           4/ 6
$$

......................KEY.........................
  SKY/WX - SKY CONDITION/PRESENT WEATHER
  TMP    - TEMPERATURE IN FAHRENHEIT
  DWPT   - DEWPOINT IN FAHRENHEIT
  RH     - RELATIVE HUMIDITY IN PERCENT
  WIND   - DIRECTION AND SPEED IN MPH
  PRES   - MEAN SEA LEVEL PRESSURE IN INCHES OF HG
  WCI    - WIND CHILL INDEX
  VSB    - VISIBILITY IN MILES
  HX     - HEAT INDEX
  TC     - TEMPERATURE IN CELSIUS
  VRB    - VARIABLE WIND DIRECTION
  N/A    - NOT AVAILABLE
  
      

Other recent Regional Weather Roundups

Mon Mar 30, 8:04am

Mon Mar 30, 7:04am

Mon Mar 30, 6:04am

Mon Mar 30, 5:04am

Mon Mar 30, 4:04am

Mon Mar 30, 3:05am

Mon Mar 30, 2:04am

Mon Mar 30, 1:04am

Mon Mar 30, 12:04am

Sun Mar 29, 11:04pm

Sun Mar 29, 10:05pm

Sun Mar 29, 9:04pm

Sun Mar 29, 8:04pm

Sun Mar 29, 7:04pm

Sun Mar 29, 6:04pm

Sun Mar 29, 5:05pm

Sun Mar 29, 4:04pm

Sun Mar 29, 3:04pm

Sun Mar 29, 2:04pm

Sun Mar 29, 1:05pm

Sun Mar 29, 12:04pm

Sun Mar 29, 11:04am

Sun Mar 29, 10:04am

Sun Mar 29, 9:04am

Sun Mar 29, 8:04am

Sun Mar 29, 7:04am

Sun Mar 29, 6:04am

Sun Mar 29, 5:04am

Sun Mar 29, 4:04am

Sun Mar 29, 3:04am

Sun Mar 29, 2:04am

Sun Mar 29, 1:04am

Sun Mar 29, 12:04am

Sat Mar 28, 11:05pm

Sat Mar 28, 10:04pm

Sat Mar 28, 9:04pm

Sat Mar 28, 8:04pm

Sat Mar 28, 7:04pm

Sat Mar 28, 6:04pm

Sat Mar 28, 5:05pm

Sat Mar 28, 4:04pm

Sat Mar 28, 3:04pm

Sat Mar 28, 2:04pm

Sat Mar 28, 1:05pm

Sat Mar 28, 12:04pm

Sat Mar 28, 11:04am

Sat Mar 28, 10:04am

Sat Mar 28, 9:04am

Sat Mar 28, 8:04am

Sat Mar 28, 7:04am

Sat Mar 28, 6:04am

Sat Mar 28, 5:04am

Sat Mar 28, 4:04am

Sat Mar 28, 3:04am

Sat Mar 28, 2:04am

Sat Mar 28, 1:04am

Sat Mar 28, 12:04am

Fri Mar 27, 11:04pm

Fri Mar 27, 10:04pm

Fri Mar 27, 9:04pm

Fri Mar 27, 8:04pm

Fri Mar 27, 7:05pm

Fri Mar 27, 6:04pm

Fri Mar 27, 4:05pm

Fri Mar 27, 3:04pm

Fri Mar 27, 2:05pm

Fri Mar 27, 1:04pm

Fri Mar 27, 12:04pm

Fri Mar 27, 11:04am

Fri Mar 27, 10:04am

Fri Mar 27, 9:04am

Meta data:

ID: cb8fa2dd-3660-45aa-9b4e-dc0420d9a728
Link: https://api.weather.gov/products/cb8fa2dd-3660-45aa-9b4e-dc0420d9a728